"Data set title: Gaging station water sample data. Usage: Event based table used with water chemistry collection from 01-Oct-2021 to 30-Sep-2022",,,,,,,,,,,,
,,,,,,,,,,,,,
"Site","Date","RecNum","SiteID","Flag_SiteID","LOGGERID","PROGID","VNOTCH_INST_0_0_01","Flag_VNOTCH_INST_0_0_01","SAMPLE_INST_0_0_01","Flag_SAMPLE_INST_0_0_01","STAGE_INST_0_0_01","Flag_STAGE_INST_0_0_01"
"","yyyy-MM-dd HH:mm:ss","count","","none","none","none","none","none","count","none","ft","none"
"nominal","datetime","nominal","data","code","nominal","nominal","data","code","data","code","data","code"
"GSWS07_119",2021-10-01 13:21:30,1380,107.00,"",119,55521.0,0,"",6,"",0.0390,""
"GSWS07_119",2021-10-02 02:39:30,1381,107.00,"",119,55521.0,0,"",7,"",0.0390,""
"GSWS07_119",2021-10-02 15:57:30,1382,107.00,"",119,55521.0,0,"",8,"",0.0380,""
"GSWS07_119",2021-10-03 05:15:30,1383,107.00,"",119,55521.0,0,"",9,"",0.0380,""
"GSWS07_119",2021-10-03 18:33:30,1384,107.00,"",119,55521.0,0,"",10,"",0.0370,""
"GSWS07_119",2021-10-04 07:51:30,1385,107.00,"",119,55521.0,0,"",11,"",0.0370,""
"GSWS07_119",2021-10-04 21:09:30,1386,107.00,"",119,55521.0,0,"",12,"",0.0370,""
"GSWS07_119",2021-10-05 10:27:30,1387,107.00,"",119,55521.0,0,"",13,"",0.0370,""
"GSWS07_119",2021-10-05 14:08:45,1388,107.00,"",119,55521.0,0,"",14,"",0.0350,""
"GSWS07_119",2021-10-05 15:10:45,1389,107.00,"",119,55521.0,0,"",15,"",0.0330,""
"GSWS07_119",2021-10-05 15:11:30,1390,107.00,"",119,55521.0,0,"",16,"",0.0330,""
"GSWS07_119",2021-10-05 15:12:15,1391,107.00,"",119,55521.0,0,"",17,"",0.0330,""
"GSWS07_119",2021-10-05 23:45:30,1392,107.00,"",119,55521.0,0,"",18,"",0.0420,""
"GSWS07_119",2021-10-06 13:03:30,1393,107.00,"",119,55521.0,0,"",19,"",0.0390,""
"GSWS07_119",2021-10-07 02:21:30,1394,107.00,"",119,55521.0,0,"",20,"",0.0390,""
"GSWS07_119",2021-10-07 15:39:30,1395,107.00,"",119,55521.0,0,"",21,"",0.0370,""
"GSWS07_119",2021-10-08 04:57:30,1396,107.00,"",119,55521.0,0,"",22,"",0.0370,""
"GSWS07_119",2021-10-08 18:15:30,1397,107.00,"",119,55521.0,0,"",23,"",0.0370,""
"GSWS07_119",2021-10-09 07:33:30,1398,107.00,"",119,55521.0,0,"",24,"",0.0370,""
"GSWS07_119",2021-10-09 20:51:30,1399,107.00,"",119,55521.0,0,"",25,"",0.0370,""
"GSWS07_119",2021-10-10 10:09:30,1400,107.00,"",119,55521.0,0,"",26,"",0.0400,""
"GSWS07_119",2021-10-10 23:27:30,1401,107.00,"",119,55521.0,0,"",27,"",0.0470,""
"GSWS07_119",2021-10-11 12:45:30,1402,107.00,"",119,55521.0,0,"",28,"",0.0430,""
"GSWS07_119",2021-10-12 02:03:30,1403,107.00,"",119,55521.0,0,"",29,"",0.0410,""
"GSWS07_119",2021-10-12 15:21:30,1404,107.00,"",119,55521.0,0,"",30,"",0.0390,""
"GSWS07_119",2021-10-13 04:39:30,1405,107.00,"",119,55521.0,0,"",31,"",0.0390,""
"GSWS07_119",2021-10-13 17:57:30,1406,107.00,"",119,55521.0,0,"",32,"",0.0390,""
"GSWS07_119",2021-10-14 07:15:30,1407,107.00,"",119,55521.0,0,"",33,"",0.0390,""
"GSWS07_119",2021-10-14 20:33:30,1408,107.00,"",119,55521.0,0,"",34,"",0.0430,""
"GSWS07_119",2021-10-15 09:51:30,1409,107.00,"",119,55521.0,0,"",35,"",0.0400,""
"GSWS07_119",2021-10-15 23:09:30,1410,107.00,"",119,55521.0,0,"",36,"",0.0390,""
"GSWS07_119",2021-10-16 12:27:30,1411,107.00,"",119,55521.0,0,"",37,"",0.0390,""
"GSWS07_119",2021-10-17 01:45:30,1412,107.00,"",119,55521.0,0,"",38,"",0.0370,""
"GSWS07_119",2021-10-17 15:03:30,1413,107.00,"",119,55521.0,0,"",39,"",0.0370,""
"GSWS07_119",2021-10-18 04:21:30,1414,107.00,"",119,55521.0,0,"",40,"",0.0420,""
"GSWS07_119",2021-10-18 17:39:30,1415,107.00,"",119,55521.0,0,"",41,"",0.0420,""
"GSWS07_119",2021-10-19 06:57:30,1416,107.00,"",119,55521.0,0,"",42,"",0.0400,""
"GSWS07_119",2021-10-19 20:15:30,1417,107.00,"",119,55521.0,0,"",43,"",0.0390,""
"GSWS07_119",2021-10-20 09:33:30,1418,107.00,"",119,55521.0,0,"",44,"",0.0460,""
"GSWS07_119",2021-10-20 10:15:30,1419,107.00,"",119,55521.0,0,"",45,"",0.0420,""
"GSWS07_119",2021-10-20 22:51:30,1420,107.00,"",119,55521.0,0,"",1,"",0.0410,""
"GSWS07_119",2021-10-21 12:09:30,1421,107.00,"",119,55521.0,0,"",2,"",0.0390,""
"GSWS07_119",2021-10-22 01:27:30,1422,107.00,"",119,55521.0,0,"",3,"",0.0900,""
"GSWS07_119",2021-10-22 14:45:30,1423,107.00,"",119,55521.0,0,"",4,"",0.0760,""
"GSWS07_119",2021-10-23 04:03:30,1424,107.00,"",119,55521.0,0,"",5,"",0.0810,""
"GSWS07_119",2021-10-23 17:21:30,1425,107.00,"",119,55521.0,0,"",6,"",0.0720,""
"GSWS07_119",2021-10-24 06:39:30,1426,107.00,"",119,55521.0,0,"",7,"",0.0670,""
"GSWS07_119",2021-10-24 19:57:30,1427,107.00,"",119,55521.0,0,"",8,"",0.0890,""
"GSWS07_119",2021-10-25 09:15:30,1428,107.00,"",119,55521.0,0,"",9,"",0.0700,""
"GSWS07_119",2021-10-25 22:33:30,1429,107.00,"",119,55521.0,0,"",10,"",0.0830,""
"GSWS07_119",2021-10-26 11:51:30,1430,107.00,"",119,55521.0,0,"",11,"",0.1200,""
"GSWS07_119",2021-10-27 01:09:30,1431,107.00,"",119,55521.0,0,"",12,"",0.1170,""
"GSWS07_119",2021-10-27 14:27:30,1432,107.00,"",119,55521.0,0,"",13,"",0.0930,""
"GSWS07_119",2021-10-28 03:45:30,1433,107.00,"",119,55521.0,0,"",14,"",0.1070,""
"GSWS07_119",2021-10-28 17:03:30,1434,107.00,"",119,55521.0,0,"",15,"",0.1130,""
"GSWS07_119",2021-10-29 06:21:30,1435,107.00,"",119,55521.0,0,"",16,"",0.1220,""
"GSWS07_119",2021-10-29 19:39:30,1436,107.00,"",119,55521.0,0,"",17,"",0.1380,""
"GSWS07_119",2021-10-30 08:57:30,1437,107.00,"",119,55521.0,0,"",18,"",0.1100,""
"GSWS07_119",2021-10-30 22:15:30,1438,107.00,"",119,55521.0,0,"",19,"",0.0910,""
"GSWS07_119",2021-10-31 11:33:30,1439,107.00,"",119,55521.0,0,"",20,"",0.0790,""
"GSWS07_119",2021-11-01 00:51:30,1440,107.00,"",119,55521.0,0,"",21,"",0.0720,""
"GSWS07_119",2021-11-01 14:09:30,1441,107.00,"",119,55521.0,0,"",22,"",0.0700,""
"GSWS07_119",2021-11-02 03:27:30,1442,107.00,"",119,55521.0,0,"",23,"",0.0700,""
"GSWS07_119",2021-11-02 16:45:30,1443,107.00,"",119,55521.0,0,"",24,"",0.0660,""
"GSWS07_119",2021-11-03 06:03:30,1444,107.00,"",119,55521.0,0,"",25,"",0.0640,""
"GSWS07_119",2021-11-03 19:21:30,1445,107.00,"",119,55521.0,0,"",26,"",0.0610,""
"GSWS07_119",2021-11-04 08:39:30,1446,107.00,"",119,55521.0,0,"",27,"",0.0740,""
"GSWS07_119",2021-11-04 21:57:30,1447,107.00,"",119,55521.0,0,"",28,"",0.1350,""
"GSWS07_119",2021-11-05 11:15:30,1448,107.00,"",119,55521.0,0,"",29,"",0.1430,""
"GSWS07_119",2021-11-06 00:33:30,1449,107.00,"",119,55521.0,0,"",30,"",0.1400,""
"GSWS07_119",2021-11-06 13:51:30,1450,107.00,"",119,55521.0,0,"",31,"",0.1570,""
"GSWS07_119",2021-11-07 03:09:30,1451,107.00,"",119,55521.0,0,"",32,"",0.1500,""
"GSWS07_119",2021-11-07 16:27:30,1452,107.00,"",119,55521.0,0,"",33,"",0.1370,""
"GSWS07_119",2021-11-08 05:45:30,1453,107.00,"",119,55521.0,0,"",34,"",0.1310,""
"GSWS07_119",2021-11-08 19:03:30,1454,107.00,"",119,55521.0,0,"",1,"",0.1230,""
"GSWS07_119",2021-11-09 08:21:30,1455,107.00,"",119,55521.0,0,"",2,"",0.1730,""
"GSWS07_119",2021-11-09 21:39:30,1456,107.00,"",119,55521.0,0,"",3,"",0.1630,""
"GSWS07_119",2021-11-10 10:57:30,1457,107.00,"",119,55521.0,0,"",4,"",0.1420,""
"GSWS07_119",2021-11-11 00:15:30,1458,107.00,"",119,55521.0,0,"",5,"",0.2590,""
"GSWS07_119",2021-11-11 13:33:30,1459,107.00,"",119,55521.0,0,"",6,"",0.3450,""
"GSWS07_119",2021-11-12 02:51:30,1460,107.00,"",119,55521.0,0,"",7,"",0.2570,""
"GSWS07_119",2021-11-12 16:09:30,1461,107.00,"",119,55521.0,0,"",8,"",0.2310,""
"GSWS07_119",2021-11-13 05:27:30,1462,107.00,"",119,55521.0,0,"",9,"",0.2310,""
"GSWS07_119",2021-11-13 18:45:30,1463,107.00,"",119,55521.0,0,"",10,"",0.2170,""
"GSWS07_119",2021-11-14 08:03:30,1464,107.00,"",119,55521.0,0,"",11,"",0.1960,""
"GSWS07_119",2021-11-14 21:21:30,1465,107.00,"",119,55521.0,0,"",12,"",0.1790,""
"GSWS07_119",2021-11-15 10:39:30,1466,107.00,"",119,55521.0,0,"",13,"",0.1660,""
"GSWS07_119",2021-11-15 23:57:30,1467,107.00,"",119,55521.0,0,"",14,"",0.1730,""
"GSWS07_119",2021-11-16 13:15:30,1468,107.00,"",119,55521.0,0,"",15,"",0.1650,""
"GSWS07_119",2021-11-17 02:33:30,1469,107.00,"",119,55521.0,0,"",16,"",0.1580,""
"GSWS07_119",2021-11-17 15:51:30,1470,107.00,"",119,55521.0,0,"",17,"",0.1510,""
"GSWS07_119",2021-11-18 05:09:30,1471,107.00,"",119,55521.0,0,"",18,"",0.1460,""
"GSWS07_119",2021-11-18 18:27:30,1472,107.00,"",119,55521.0,0,"",19,"",0.1400,""
"GSWS07_119",2021-11-19 07:45:30,1473,107.00,"",119,55521.0,0,"",20,"",0.1450,""
"GSWS07_119",2021-11-19 21:03:30,1474,107.00,"",119,55521.0,0,"",21,"",0.1410,""
"GSWS07_119",2021-11-20 10:21:30,1475,107.00,"",119,55521.0,0,"",22,"",0.1390,""
"GSWS07_119",2021-11-20 23:39:30,1476,107.00,"",119,55521.0,0,"",23,"",0.1370,""
"GSWS07_119",2021-11-21 12:57:30,1477,107.00,"",119,55521.0,0,"",24,"",0.1330,""
"GSWS07_119",2021-11-22 02:15:30,1478,107.00,"",119,55521.0,0,"",25,"",0.1290,""
"GSWS07_119",2021-11-22 15:33:30,1479,107.00,"",119,55521.0,0,"",26,"",0.1250,""
"GSWS07_119",2021-11-23 04:51:30,1480,107.00,"",119,55521.0,0,"",27,"",0.1310,""
"GSWS07_119",2021-11-23 18:09:30,1481,107.00,"",119,55521.0,0,"",28,"",0.1470,""
"GSWS07_119",2021-11-24 07:27:30,1482,107.00,"",119,55521.0,0,"",29,"",0.1460,""
"GSWS07_119",2021-11-24 20:45:30,1483,107.00,"",119,55521.0,0,"",30,"",0.1450,""
"GSWS07_119",2021-11-25 10:03:30,1484,107.00,"",119,55521.0,0,"",31,"",0.1410,""
"GSWS07_119",2021-11-25 23:21:30,1485,107.00,"",119,55521.0,0,"",32,"",0.1360,""
"GSWS07_119",2021-11-26 12:39:30,1486,107.00,"",119,55521.0,0,"",33,"",0.1450,""
"GSWS07_119",2021-11-27 01:57:30,1487,107.00,"",119,55521.0,0,"",34,"",0.1450,""
"GSWS07_119",2021-11-27 15:15:30,1488,107.00,"",119,55521.0,0,"",35,"",0.1460,""
"GSWS07_119",2021-11-28 04:33:30,1489,107.00,"",119,55521.0,0,"",36,"",0.1770,""
"GSWS07_119",2021-11-28 17:51:30,1490,107.00,"",119,55521.0,0,"",37,"",0.1790,""
"GSWS07_119",2021-11-29 07:09:30,1491,107.00,"",119,55521.0,0,"",38,"",0.1740,""
"GSWS07_119",2021-11-29 20:27:30,1492,107.00,"",119,55521.0,0,"",39,"",0.1660,""
"GSWS07_119",2021-11-30 09:45:30,1493,107.00,"",119,55521.0,0,"",40,"",0.1600,""
"GSWS07_119",2021-11-30 23:03:30,1494,107.00,"",119,55521.0,0,"",41,"",0.1550,""
"GSWS07_119",2021-12-01 12:21:30,1495,107.00,"",119,55521.0,0,"",1,"",0.1480,""
"GSWS07_119",2021-12-02 01:39:30,1496,107.00,"",119,55521.0,0,"",2,"",0.1450,""
"GSWS07_119",2021-12-02 14:57:30,1497,107.00,"",119,55521.0,0,"",3,"",0.1410,""
"GSWS07_119",2021-12-03 04:15:30,1498,107.00,"",119,55521.0,0,"",4,"",0.1380,""
"GSWS07_119",2021-12-03 17:33:30,1499,107.00,"",119,55521.0,0,"",5,"",0.1350,""
"GSWS07_119",2021-12-04 06:51:30,1500,107.00,"",119,55521.0,0,"",6,"",0.1310,""
"GSWS07_119",2021-12-04 20:09:30,1501,107.00,"",119,55521.0,0,"",7,"",0.1280,""
"GSWS07_119",2021-12-05 09:27:30,1502,107.00,"",119,55521.0,0,"",8,"",0.1260,""
"GSWS07_119",2021-12-05 22:45:30,1503,107.00,"",119,55521.0,0,"",9,"",0.1240,""
"GSWS07_119",2021-12-06 12:03:30,1504,107.00,"",119,55521.0,0,"",10,"",0.1350,""
"GSWS07_119",2021-12-07 01:21:30,1505,107.00,"",119,55521.0,0,"",11,"",0.1470,""
"GSWS07_119",2021-12-07 14:39:30,1506,107.00,"",119,55521.0,0,"",12,"",0.1470,""
"GSWS07_119",2021-12-08 03:57:30,1507,107.00,"",119,55521.0,0,"",13,"",0.1460,""
"GSWS07_119",2021-12-08 17:15:30,1508,107.00,"",119,55521.0,0,"",14,"",0.1460,""
"GSWS07_119",2021-12-09 06:33:30,1509,107.00,"",119,55521.0,0,"",15,"",0.1460,""
"GSWS07_119",2021-12-09 19:51:30,1510,107.00,"",119,55521.0,0,"",16,"",0.1460,""
"GSWS07_119",2021-12-10 09:09:30,1511,107.00,"",119,55521.0,0,"",17,"",0.1430,""
"GSWS07_119",2021-12-10 22:27:30,1512,107.00,"",119,55521.0,0,"",18,"",0.1420,""
"GSWS07_119",2021-12-11 11:45:30,1513,107.00,"",119,55521.0,0,"",19,"",0.1450,""
"GSWS07_119",2021-12-12 01:03:30,1514,107.00,"",119,55521.0,0,"",20,"",0.2360,""
"GSWS07_119",2021-12-12 14:21:30,1515,107.00,"",119,55521.0,0,"",21,"",0.2340,""
"GSWS07_119",2021-12-13 03:39:30,1516,107.00,"",119,55521.0,0,"",22,"",0.2180,""
"GSWS07_119",2021-12-13 16:57:30,1517,107.00,"",119,55521.0,0,"",23,"",0.2110,""
"GSWS07_119",2021-12-14 06:15:30,1518,107.00,"",119,55521.0,0,"",24,"",0.2010,""
"GSWS07_119",2021-12-14 19:33:30,1519,107.00,"",119,55521.0,0,"",25,"",0.1920,""
"GSWS07_119",2021-12-15 08:51:30,1520,107.00,"",119,55521.0,0,"",26,"",0.1850,""
"GSWS07_119",2021-12-15 22:09:30,1521,107.00,"",119,55521.0,0,"",27,"",0.1810,""
"GSWS07_119",2021-12-16 11:27:30,1522,107.00,"",119,55521.0,0,"",28,"",0.1770,""
"GSWS07_119",2021-12-17 00:45:30,1523,107.00,"",119,55521.0,0,"",29,"",0.1750,""
"GSWS07_119",2021-12-17 14:03:30,1524,107.00,"",119,55521.0,0,"",30,"",0.1770,""
"GSWS07_119",2021-12-18 03:21:30,1525,107.00,"",119,55521.0,0,"",31,"",0.1770,""
"GSWS07_119",2021-12-18 16:39:30,1526,107.00,"",119,55521.0,0,"",32,"",0.1900,""
"GSWS07_119",2021-12-19 05:57:30,1527,107.00,"",119,55521.0,0,"",33,"",0.3040,""
"GSWS07_119",2021-12-19 09:55:30,1528,107.00,"",119,55521.0,0,"",34,"",0.4090,""
"GSWS07_119",2021-12-19 12:35:30,1529,107.00,"",119,55521.0,0,"",1,"",0.4580,""
"GSWS07_119",2021-12-19 19:13:30,1530,107.00,"",119,55521.0,0,"",2,"",0.4930,""
"GSWS07_119",2021-12-19 23:39:30,1531,107.00,"",119,55521.0,0,"",3,"",0.5130,""
"GSWS07_119",2021-12-20 04:05:30,1532,107.00,"",119,55521.0,0,"",4,"",0.5310,""
"GSWS07_119",2021-12-20 08:31:30,1533,107.00,"",119,55521.0,0,"",5,"",0.5350,""
"GSWS07_119",2021-12-20 12:57:30,1534,107.00,"",119,55521.0,0,"",6,"",0.5660,""
"GSWS07_119",2021-12-20 17:23:30,1535,107.00,"",119,55521.0,0,"",7,"",0.5560,""
"GSWS07_119",2021-12-20 21:49:30,1536,107.00,"",119,55521.0,0,"",8,"",0.5490,""
"GSWS07_119",2021-12-21 02:15:30,1537,107.00,"",119,55521.0,0,"",9,"",0.5320,""
"GSWS07_119",2021-12-21 06:41:30,1538,107.00,"",119,55521.0,0,"",10,"",0.5080,""
"GSWS07_119",2021-12-21 13:19:30,1539,107.00,"",119,55521.0,0,"",11,"",0.4760,""
"GSWS07_119",2021-12-21 19:57:30,1540,107.00,"",119,55521.0,0,"",12,"",0.4450,""
"GSWS07_119",2021-12-22 02:35:30,1541,107.00,"",119,55521.0,0,"",13,"",0.4200,""
"GSWS07_119",2021-12-22 09:13:30,1542,107.00,"",119,55521.0,0,"",14,"",0.3980,""
"GSWS07_119",2021-12-22 15:51:30,1543,107.00,"",119,55521.0,0,"",15,"",0.3830,""
"GSWS07_119",2021-12-22 22:29:30,1544,107.00,"",119,55521.0,0,"",16,"",0.4140,""
"GSWS07_119",2021-12-23 05:07:30,1545,107.00,"",119,55521.0,0,"",17,"",0.4220,""
"GSWS07_119",2021-12-23 11:45:30,1546,107.00,"",119,55521.0,0,"",18,"",0.4120,""
"GSWS07_119",2021-12-23 18:23:30,1547,107.00,"",119,55521.0,0,"",19,"",0.4050,""
"GSWS07_119",2021-12-24 01:01:30,1548,107.00,"",119,55521.0,0,"",20,"",0.3970,""
"GSWS07_119",2021-12-24 07:39:30,1549,107.00,"",119,55521.0,0,"",21,"",0.3930,""
"GSWS07_119",2021-12-24 14:17:30,1550,107.00,"",119,55521.0,0,"",22,"",0.3860,""
"GSWS07_119",2021-12-25 03:35:30,1551,107.00,"",119,55521.0,0,"",23,"",0.3400,""
"GSWS07_119",2021-12-25 16:53:30,1552,107.00,"",119,55521.0,0,"",24,"",0.3090,""
"GSWS07_119",2021-12-26 06:11:30,1553,107.00,"",119,55521.0,0,"",25,"",0.2910,""
"GSWS07_119",2021-12-26 19:29:30,1554,107.00,"",119,55521.0,0,"",26,"",0.2670,""
"GSWS07_119",2021-12-27 08:47:30,1555,107.00,"",119,55521.0,0,"",27,"",0.2440,""
"GSWS07_119",2021-12-27 22:05:30,1556,107.00,"",119,55521.0,0,"",28,"",0.2480,""
"GSWS07_119",2021-12-28 11:23:30,1557,107.00,"",119,55521.0,0,"",29,"",0.2390,""
"GSWS07_119",2021-12-29 00:41:30,1558,107.00,"",119,55521.0,0,"",30,"",0.2300,""
"GSWS07_119",2021-12-29 13:59:30,1559,107.00,"",119,55521.0,0,"",31,"",0.2200,""
"GSWS07_119",2021-12-30 03:17:30,1560,107.00,"",119,55521.0,0,"",32,"",0.2080,""
"GSWS07_119",2021-12-30 16:35:30,1561,107.00,"",119,55521.0,0,"",33,"",0.2010,""
"GSWS07_119",2021-12-31 05:53:30,1562,107.00,"",119,55521.0,0,"",34,"",0.1960,""
"GSWS07_119",2021-12-31 19:11:30,1563,107.00,"",119,55521.0,0,"",35,"",0.1880,""
"GSWS07_119",2022-01-01 21:47:30,1564,107.00,"",119,55521.0,0,"",36,"",0.1770,""
"GSWS07_119",2022-01-02 11:05:30,1565,107.00,"",119,55521.0,0,"",37,"",0.1750,""
"GSWS07_119",2022-01-03 00:23:30,1566,107.00,"",119,55521.0,0,"",38,"",0.1740,""
"GSWS07_119",2022-01-03 13:41:30,1567,107.00,"",119,55521.0,0,"",39,"",0.1850,""
"GSWS07_119",2022-01-04 02:59:30,1568,107.00,"",119,55521.0,0,"",40,"",0.1760,""
"GSWS07_119",2022-01-04 16:17:30,1569,107.00,"",119,55521.0,0,"",41,"",0.1710,""
"GSWS07_119",2022-01-05 05:35:30,1570,107.00,"",119,55521.0,0,"",42,"",0.2070,""
"GSWS07_119",2022-01-05 18:53:30,1571,107.00,"",119,55521.0,0,"",43,"",0.2900,""
"GSWS07_119",2022-01-06 03:08:45,1572,107.00,"",119,55521.0,0,"",44,"",0.3630,""
"GSWS07_119",2022-01-06 09:46:45,1573,107.00,"",119,55521.0,0,"",45,"",0.4000,""
"GSWS07_119",2022-01-06 16:24:45,1574,107.00,"",119,55521.0,0,"",46,"",0.4090,""
"GSWS07_119",2022-01-06 23:02:45,1575,107.00,"",119,55521.0,0,"",47,"",0.4260,""
"GSWS07_119",2022-01-07 05:40:45,1576,107.00,"",119,55521.0,0,"",48,"",0.4560,""
"GSWS07_119",2022-01-07 12:18:45,1577,107.00,"",119,55521.0,0,"",49,"",0.4850,""
"GSWS07_119",2022-01-07 18:56:45,1578,107.00,"",119,55521.0,0,"",50,"",0.4810,""
"GSWS07_119",2022-01-08 01:34:45,1579,107.00,"",119,55521.0,0,"",51,"",0.4640,""
"GSWS07_119",2022-01-08 08:12:45,1580,107.00,"",119,55521.0,0,"",52,"",0.4520,""
"GSWS07_119",2022-01-08 14:50:45,1581,107.00,"",119,55521.0,0,"",53,"",0.4300,""
"GSWS07_119",2022-01-08 21:28:45,1582,107.00,"",119,55521.0,0,"",54,"",0.4070,""
"GSWS07_119",2022-01-09 04:06:45,1583,107.00,"",119,55521.0,0,"",55,"",0.3840,""
"GSWS07_119",2022-01-09 10:44:45,1584,107.00,"",119,55521.0,0,"",56,"",0.3700,""
"GSWS07_119",2022-01-10 00:02:45,1585,107.00,"",119,55521.0,0,"",57,"",0.3340,""
"GSWS07_119",2022-01-10 13:20:45,1586,107.00,"",119,55521.0,0,"",58,"",0.3150,""
"GSWS07_119",2022-01-11 02:38:45,1587,107.00,"",119,55521.0,0,"",59,"",0.2960,""
"GSWS07_119",2022-01-11 15:56:45,1588,107.00,"",119,55521.0,0,"",60,"",0.2920,""
"GSWS07_119",2022-01-12 05:14:45,1589,107.00,"",119,55521.0,0,"",61,"",0.3070,""
"GSWS07_119",2022-01-12 14:02:00,1590,107.00,"",119,55521.0,0,"",62,"",0.3120,""
"GSWS07_119",2022-01-12 18:32:45,1591,107.00,"",119,55521.0,0,"",1,"",0.3160,""
"GSWS07_119",2022-01-13 07:50:45,1592,107.00,"",119,55521.0,0,"",2,"",0.3290,""
"GSWS07_119",2022-01-13 16:34:00,1593,107.00,"",119,55521.0,0,"",3,"",0.3630,""
"GSWS07_119",2022-01-13 23:12:00,1594,107.00,"",119,55521.0,0,"",4,"",0.3840,""
"GSWS07_119",2022-01-14 05:50:00,1595,107.00,"",119,55521.0,0,"",5,"",0.3890,""
"GSWS07_119",2022-01-14 12:28:00,1596,107.00,"",119,55521.0,0,"",6,"",0.3860,""
"GSWS07_119",2022-01-14 19:06:00,1597,107.00,"",119,55521.0,0,"",7,"",0.3840,""
"GSWS07_119",2022-01-15 01:44:00,1598,107.00,"",119,55521.0,0,"",8,"",0.3810,""
"GSWS07_119",2022-01-15 08:22:00,1599,107.00,"",119,55521.0,0,"",9,"",0.3750,""
"GSWS07_119",2022-01-15 15:00:00,1600,107.00,"",119,55521.0,0,"",10,"",0.3690,""
"GSWS07_119",2022-01-16 04:18:00,1601,107.00,"",119,55521.0,0,"",11,"",0.3510,""
"GSWS07_119",2022-01-16 17:36:00,1602,107.00,"",119,55521.0,0,"",12,"",0.3420,""
"GSWS07_119",2022-01-17 06:54:00,1603,107.00,"",119,55521.0,0,"",13,"",0.3440,""
"GSWS07_119",2022-01-17 20:12:00,1604,107.00,"",119,55521.0,0,"",14,"",0.3410,""
"GSWS07_119",2022-01-18 09:30:00,1605,107.00,"",119,55521.0,0,"",15,"",0.3360,""
"GSWS07_119",2022-01-18 22:48:00,1606,107.00,"",119,55521.0,0,"",16,"",0.3280,""
"GSWS07_119",2022-01-19 12:06:00,1607,107.00,"",119,55521.0,0,"",17,"",0.3200,""
"GSWS07_119",2022-01-20 01:24:00,1608,107.00,"",119,55521.0,0,"",18,"",0.3370,""
"GSWS07_119",2022-01-20 08:02:00,1609,107.00,"",119,55521.0,0,"",19,"",0.3820,""
"GSWS07_119",2022-01-20 14:40:00,1610,107.00,"",119,55521.0,0,"",20,"",0.3990,""
"GSWS07_119",2022-01-20 21:18:00,1611,107.00,"",119,55521.0,0,"",21,"",0.4100,""
"GSWS07_119",2022-01-21 03:56:00,1612,107.00,"",119,55521.0,0,"",22,"",0.4120,""
"GSWS07_119",2022-01-21 10:34:00,1613,107.00,"",119,55521.0,0,"",23,"",0.4090,""
"GSWS07_119",2022-01-21 17:12:00,1614,107.00,"",119,55521.0,0,"",24,"",0.3990,""
"GSWS07_119",2022-01-21 23:50:00,1615,107.00,"",119,55521.0,0,"",25,"",0.3870,""
"GSWS07_119",2022-01-22 06:28:00,1616,107.00,"",119,55521.0,0,"",26,"",0.3780,""
"GSWS07_119",2022-01-22 19:46:00,1617,107.00,"",119,55521.0,0,"",27,"",0.3510,""
"GSWS07_119",2022-01-23 09:04:00,1618,107.00,"",119,55521.0,0,"",28,"",0.3400,""
"GSWS07_119",2022-01-23 22:22:00,1619,107.00,"",119,55521.0,0,"",29,"",0.3380,""
"GSWS07_119",2022-01-24 11:40:00,1620,107.00,"",119,55521.0,0,"",30,"",0.3400,""
"GSWS07_119",2022-01-25 00:58:00,1621,107.00,"",119,55521.0,0,"",31,"",0.3360,""
"GSWS07_119",2022-01-25 14:16:00,1622,107.00,"",119,55521.0,0,"",32,"",0.3290,""
"GSWS07_119",2022-01-26 03:34:00,1623,107.00,"",119,55521.0,0,"",33,"",0.3190,""
"GSWS07_119",2022-01-26 16:52:00,1624,107.00,"",119,55521.0,0,"",34,"",0.3040,""
"GSWS07_119",2022-01-27 06:10:00,1625,107.00,"",119,55521.0,0,"",35,"",0.2930,""
"GSWS07_119",2022-01-27 19:28:00,1626,107.00,"",119,55521.0,0,"",36,"",0.2800,""
"GSWS07_119",2022-01-28 08:46:00,1627,107.00,"",119,55521.0,0,"",37,"",0.2770,""
"GSWS07_119",2022-01-28 22:04:00,1628,107.00,"",119,55521.0,0,"",38,"",0.2730,""
"GSWS07_119",2022-01-29 11:22:00,1629,107.00,"",119,55521.0,0,"",39,"",0.2720,""
"GSWS07_119",2022-01-30 00:40:00,1630,107.00,"",119,55521.0,0,"",40,"",0.2690,""
"GSWS07_119",2022-01-30 13:58:00,1631,107.00,"",119,55521.0,0,"",41,"",0.2640,""
"GSWS07_119",2022-01-31 03:16:00,1632,107.00,"",119,55521.0,0,"",42,"",0.2730,""
"GSWS07_119",2022-01-31 16:34:00,1633,107.00,"",119,55521.0,0,"",43,"",0.2670,""
"GSWS07_119",2022-02-01 05:52:00,1634,107.00,"",119,55521.0,0,"",44,"",0.2540,""
"GSWS07_119",2022-02-01 19:10:00,1635,107.00,"",119,55521.0,0,"",45,"",0.2420,""
"GSWS07_119",2022-02-02 08:28:00,1636,107.00,"",119,55521.0,0,"",46,"",0.2320,""
"GSWS07_119",2022-02-02 21:46:00,1637,107.00,"",119,55521.0,0,"",1,"",0.2250,""
"GSWS07_119",2022-02-03 11:04:00,1638,107.00,"",119,55521.0,0,"",2,"",0.2380,""
"GSWS07_119",2022-02-04 00:22:00,1639,107.00,"",119,55521.0,0,"",3,"",0.2340,""
"GSWS07_119",2022-02-04 13:40:00,1640,107.00,"",119,55521.0,0,"",4,"",0.2270,""
"GSWS07_119",2022-02-05 02:58:00,1641,107.00,"",119,55521.0,0,"",5,"",0.2210,""
"GSWS07_119",2022-02-05 16:16:00,1642,107.00,"",119,55521.0,0,"",6,"",0.2180,""
"GSWS07_119",2022-02-06 05:34:00,1643,107.00,"",119,55521.0,0,"",7,"",0.2180,""
"GSWS07_119",2022-02-06 18:52:00,1644,107.00,"",119,55521.0,0,"",8,"",0.2270,""
"GSWS07_119",2022-02-07 08:10:00,1645,107.00,"",119,55521.0,0,"",9,"",0.2340,""
"GSWS07_119",2022-02-07 21:28:00,1646,107.00,"",119,55521.0,0,"",10,"",0.2320,""
"GSWS07_119",2022-02-08 10:46:00,1647,107.00,"",119,55521.0,0,"",11,"",0.2320,""
"GSWS07_119",2022-02-09 00:04:00,1648,107.00,"",119,55521.0,0,"",12,"",0.2310,""
"GSWS07_119",2022-02-09 13:22:00,1649,107.00,"",119,55521.0,0,"",13,"",0.2300,""
"GSWS07_119",2022-02-10 02:40:00,1650,107.00,"",119,55521.0,0,"",14,"",0.2230,""
"GSWS07_119",2022-02-10 15:58:00,1651,107.00,"",119,55521.0,0,"",15,"",0.2220,""
"GSWS07_119",2022-02-11 05:16:00,1652,107.00,"",119,55521.0,0,"",16,"",0.2250,""
"GSWS07_119",2022-02-11 18:34:00,1653,107.00,"",119,55521.0,0,"",17,"",0.2350,""
"GSWS07_119",2022-02-12 07:52:00,1654,107.00,"",119,55521.0,0,"",18,"",0.2340,""
"GSWS07_119",2022-02-12 21:10:00,1655,107.00,"",119,55521.0,0,"",19,"",0.2270,""
"GSWS07_119",2022-02-13 10:28:00,1656,107.00,"",119,55521.0,0,"",20,"",0.2190,""
"GSWS07_119",2022-02-13 23:46:00,1657,107.00,"",119,55521.0,0,"",21,"",0.2150,""
"GSWS07_119",2022-02-14 13:04:00,1658,107.00,"",119,55521.0,0,"",22,"",0.2190,""
"GSWS07_119",2022-02-15 02:22:00,1659,107.00,"",119,55521.0,0,"",23,"",0.2110,""
"GSWS07_119",2022-02-15 15:40:00,1660,107.00,"",119,55521.0,0,"",24,"",0.2020,""
"GSWS07_119",2022-02-16 04:58:00,1661,107.00,"",119,55521.0,0,"",25,"",0.1940,""
"GSWS07_119",2022-02-16 18:16:00,1662,107.00,"",119,55521.0,0,"",26,"",0.1870,""
"GSWS07_119",2022-02-17 07:34:00,1663,107.00,"",119,55521.0,0,"",27,"",0.1810,""
"GSWS07_119",2022-02-17 20:52:00,1664,107.00,"",119,55521.0,0,"",28,"",0.1760,""
"GSWS07_119",2022-02-18 10:10:00,1665,107.00,"",119,55521.0,0,"",29,"",0.1730,""